[Date Prev][Date Next][Thread Prev][Thread Next] - [Date Index][Thread Index][Author Index]

2 Line ISS Keps 1-31



ISS
1 25544U 98067A   02031.22703755  .00075437  00000-0  93746-3 0   211
2 25544  51.6395  21.4726 0006543  18.3481  96.0830 15.59279696182664


----
Via the sarex mailing list at AMSAT.ORG courtesy of AMSAT-NA.
To unsubscribe, send "unsubscribe sarex" to Majordomo@amsat.org



AMSAT Top AMSAT Home